User: anonymous   Login
Location: Boca do Mato
(22.9085°S, 43.2930°W)
Time: 01:14:25
(UTC+00:00)
Language:

Cosmos 1818 - Orbit

View from above orbital plane
View from above orbital plane
View from above satellite
View from above satellite

Ground track
Ground track

The orbit data is extracted from the following two-line orbital elements,

1 17369U 87011A   20272.46555169 -.00000076 +00000-0 +90676-5 0  9994
2 17369 065.0123 334.9981 0014810 284.4547 075.4894 14.31458393810007
Epoch (UTC): 28 September 2020 11:10:23
Eccentricity: 0.0014810
inclination: 65.0123°
perigee height: 776 km
apogee height: 797 km
right ascension of ascending node: 334.9981°
argument of perigee: 284.4547°
revolutions per day: 14.31458393
mean anomaly at epoch: 75.4894°
orbit number at epoch: 81000

The dashed part of the orbit path shows where the satellite is in the earth's shadow,  

DLR